Preview of NWS' New Version of Forecast
This preview is not operational and should not be used for support decisions.

Regional Weather Roundup (RWR)

Issued by National Weather Service (NWS)

                            
000
ASUS46 KPQR 241710
RWROR 

OREGON REGIONAL WEATHER ROUNDUP
NATIONAL WEATHER SERVICE PORTLAND OR
1000 AM PDT MON JUN 24 2019

NOTE: "FAIR" INDICATES FEW OR NO CLOUDS BELOW 12,000 FEET WITH
NO SIGNIFICANT WEATHER AND/OR OBSTRUCTIONS TO VISIBILITY.

ORZ001>013-241800-
NORTHWEST OREGON

  
CITY           SKY/WX    TMP DP  RH WIND       PRES   REMARKS
ASTORIA        CLOUDY    60  49  66 N7        30.09S                  
TILLAMOOK      SUNNY     61  45  55 N5        30.10F                  
NEWPORT        SUNNY     57  46  67 CALM      30.11F                  
PORTLAND       PTSUNNY   60  44  55 CALM      30.09F                  
VANCOUVER WA   CLOUDY    60  44  55 NW6       30.08F                  
SCAPPOOSE      CLOUDY    58  49  72 CALM      30.08F                  
HILLSBORO      MOSUNNY   60  45  57 NE5       30.08F                  
AURORA         PTSUNNY   62  44  51 VRB6      30.09F                  
MCMINNVILLE    MOSUNNY   59  45  59 VRB5      30.08F                  
SALEM          MOSUNNY   61  43  51 N9        30.08S                  
CORVALLIS      PTSUNNY   62  46  55 VRB5      30.08F                  
EUGENE         MOSUNNY   62  47  57 N10       30.07F                  
$$

ORZ021-028-241800-
SOUTHWEST OREGON

  
CITY           SKY/WX    TMP DP  RH WIND       PRES   REMARKS
NORTH BEND     SUNNY     62  51  67 NW6       30.08F                  
BROOKINGS      SUNNY     56  49  77 VRB5      30.03S                  
ROSEBURG       MOSUNNY   62  48  60 N3        30.06F                  
SEXTON SUMMIT  SUNNY     58  48  69 N3        30.06S                  
GRANTS PASS    FAIR      66  46  48 NE5       30.04F                  
MEDFORD        SUNNY     67  45  45 N3        30.00F                  
$$

ORZ014>016-041-241800-
COLUMBIA GORGE

  
CITY           SKY/WX    TMP DP  RH WIND       PRES   REMARKS
TROUTDALE      SUNNY     60  45  57 VRB5      30.09F                  
HOOD RIVER     SUNNY     63  43  48 NW14G20   30.02F                  
THE DALLES     SUNNY     65  43  44 NW15G24   30.00F                  
$$

ORZ029>031-041-044-049-050-061>064-502-503-505>511-241800-
EASTERN OREGON

  
CITY           SKY/WX    TMP DP  RH WIND       PRES   REMARKS
MADRAS         SUNNY     59  39  47 CALM      30.04F                  
REDMOND        SUNNY     64  38  38 W8        30.02F                  
BEND           SUNNY     63  37  39 S5        30.02S                  
PRINEVILLE     SUNNY     61  37  41 VRB5      30.02F                  
KLAMATH FALLS  SUNNY     62  39  42 VRB3      30.03F                  
LAKEVIEW       SUNNY     63  41  45 SE6       30.05F HAZE             
HERMISTON      SUNNY     65  42  43 W10       29.99F                  
PENDLETON      SUNNY     64  40  41 W16       29.99F                  
JOHN DAY       SUNNY     59  34  38 CALM      30.03F                  
MEACHAM        SUNNY     57  36  45 VRB3      30.02S                  
LA GRANDE      SUNNY     59  37  44 E5        30.02F                  
BAKER CITY     SUNNY     61  38  42 CALM      30.02F                  
BURNS          SUNNY     58  36  43 VRB6      30.05F                  
ROME           NOT AVBL                                               
ONTARIO        SUNNY     69  39  33 VRB5      30.00F                  
$$